Showing default

COSMOS 2570, 58148

Orbit data source: Space-Track

COSMOS 2570, 58148 is a payload satellite owned by VVKO VKS (CIS) in LEO that was launched on Fri, 27 Oct 2023 UTC via a SOYUZ-2-1B launch vehicle from the Plesetsk Missile And Space Complex (PKMTR). Payload-class satellites include a variety of spacecraft equipped with specific instruments for various scientific and technological missions. These include communications satellites like Starlink; space stations such as the ISS; scientific satellites like the Hubble; Earth observation satellites from companies like Planet Labs, Umbra, and HawkEye 360; GPS; miniature CubeSats for education and research; and military/defense satellites.

Loading next visibility...
Identifier
58148, 2023-165A
Orbit
LEO
Country
Flag of CISCIS
Related business
Manufacturer
TSSKBP/ARSLO
Mission
Operational Defense Sigint
Bus & Motor
YANTAR'-LOTOS, 11D428
Mass
6,575 kg wet, ~6,500 kg dry
Launch date (UTC)
2023-10-27 (3 years ago)
Launch vehicle
SOYUZ-2-1B
Launch site
Plesetsk Missile And Space Complex (PKMTR)
Object type
Payload
Rocket body
Debris
Shape & HBR
Cyl + 2 Pan, 3.1 m
Radar Cross Section
16.222 m², Large (>1 m²)

Expand to show TLE details & history
Last TLE update: 21 hours ago

TLE from 21 hours ago
0 COSMOS 2570
1 58148U 23165A   26172.55581072 -.00000045  00000-0  22016-4 0  9999
2 58148  67.1500 278.8110 0006889 276.1565  83.8735 13.96672052135247
Epoch: 2026-06-21T13:20Z
TLE epoch observation values (Epoch: 2026-06-21T13:20:22.046Z)
Latitude
0.00003°
Longitude
168.96476°
Altitude
906.918 km
Speed
7.399 km/s
True Right ascension
18h 35m 14s
True Declination
0° 00' 00"
Sunlit
Object was in full shadow at epoch
Visualization orbit readout
Latitude
Unknown
Longitude
Unknown
Altitude
Unknown
Speed
Unknown
Apparent Right ascension
Unknown
Apparent Declination
Unknown
Sunlit
N/A
Visualization observer readout
Local Sidereal Time
21:27:09
Azimuth
Unknown
Elevation
Unknown
Doppler factor
Unknown
Orbital elements
Apogee altitude
908.708 km
Perigee altitude
898.675 km
Semi-major axis
7,281.828 km
Eccentricity
0.00069
Inclination
67.15°
RAAN
278.811°
Arg. of periapsis
276.1565°
True anomaly
83.952°
Mean anomaly
83.8735°
Eccentric anomaly
83.91275°
Mean motion
3.49287 °/min
Orbital period
103.07 mins
BSTAR
0.000022016
Loading maneuver chart data...
Computing Atmospheric mass density...
Loading historical data...
Loading historical data...
Loading historical data...
Loading historical data...
Loading historical data...
Loading historical data...
Loading historical data...
Other satellites on launch #165 in the year 2023 (2023-10-27 UTC)

Documentation

Showing up to 5 results
|